Weather History for Charles City, IA

Change the Weather History Date:

Sunday, January 26, 2014

  Actual Average Record
Temperature  
Mean Temperature 11 °F -  
Max Temperature 26 °F 23 °F 64 °F (2002)
Min Temperature -4 °F 4 °F -21 °F (1982)
Degree Days  
Heating Degree Days 54    
Moisture  
Dew Point 8 °F    
Average Humidity 77    
Maximum Humidity 86    
Minimum Humidity 68    
Precipitation  
Precipitation 0.00 in - - ()
Sea Level Pressure  
Sea Level Pressure 29.58 in    
Wind  
Wind Speed 21 mph (WNW)    
Max Wind Speed 44 mph    
Max Gust Speed 62 mph    
Visibility 4 miles    
Events Rain , Snow    
Averages and records for this station are not official NWS values.
T = Trace of Precipitation, MM = Missing Value Source: NWS Daily Summary

Daily Weather History Graph

Daily Weather History Graph

Search for Another Location

Airport:

Trip Planner

Search our weather history database for the weather conditions in past years. The results will help you decide how hot, cold, wet, or windy it might be!

Date:

Astronomy

Jan. 26, 2014 Rise Set
Actual Time 7:31 AM CST 5:15 PM CST
Civil Twilight 7:00 AM CST 5:45 PM CST
Nautical Twilight 6:26 AM CST 6:20 PM CST
Astronomical Twilight 5:52 AM CST 6:53 PM CST
Moon 3:09 AM CST (1/26) 1:04 PM CST (1/26)
Length of Visible Light 10h 44m
Length of Day
9h 43m
Waning Crescent, 23% of the Moon is Illuminated
Jan 26
Waning Crescent
Jan 30
New
Feb 6
First Quarter
Feb 14
Full
Feb 22
Last Quarter

Hourly Weather History & Observations

Time (CST) Temp. Windchill Dew Point Humidity Pressure Visibility Wind Dir Wind Speed Gust Speed Precip Events Conditions
12:15 AM 10.4 °F -6.0 °F 6.8 °F 85% 29.53 in 0.5 mi SE 15.0 mph - N/A Snow Light Snow
12:35 AM 10.4 °F -7.2 °F 6.8 °F 85% 29.50 in - SE 17.3 mph - N/A Snow Light Snow
12:55 AM 12.2 °F -5.8 °F 6.8 °F 79% 29.47 in 0.5 mi SE 19.6 mph - N/A Snow Light Snow
1:15 AM 12.2 °F -5.8 °F 6.8 °F 79% 29.44 in 0.8 mi SE 19.6 mph - N/A Snow Light Snow
1:35 AM 12.2 °F -4.3 °F 8.6 °F 85% 29.43 in 1.5 mi SSE 16.1 mph - N/A Snow Light Snow
1:55 AM 12.2 °F -1.8 °F 8.6 °F 85% 29.43 in 2.0 mi SE 11.5 mph 25.3 mph N/A Snow Light Snow
2:15 AM 14.0 °F -3.4 °F 8.6 °F 79% 29.40 in 9.0 mi SE 19.6 mph - N/A   Overcast
2:35 AM 14.0 °F -1.4 °F 8.6 °F 79% 29.41 in 10.0 mi SE 15.0 mph 21.9 mph N/A   Overcast
2:55 AM 14.0 °F -3.4 °F 10.4 °F 86% 29.38 in 10.0 mi SE 19.6 mph - N/A   Overcast
3:15 AM 14.0 °F -3.0 °F 10.4 °F 86% 29.37 in 10.0 mi SE 18.4 mph - N/A   Overcast
3:35 AM 15.8 °F 2.1 °F 10.4 °F 79% 29.37 in 10.0 mi SSE 12.7 mph 19.6 mph N/A   Overcast
3:55 AM 15.8 °F 2.7 °F 10.4 °F 79% 29.37 in 10.0 mi SSE 11.5 mph - N/A   Overcast
4:15 AM 15.8 °F 1.4 °F 10.4 °F 79% 29.36 in 10.0 mi SSE 13.8 mph - N/A   Overcast
4:35 AM 15.8 °F 5.1 °F 12.2 °F 86% 29.36 in 10.0 mi South 8.1 mph - N/A   Overcast
4:55 AM 15.8 °F 8.6 °F 12.2 °F 86% 29.36 in 10.0 mi South 4.6 mph - N/A   Overcast
5:15 AM 15.8 °F 7.2 °F 12.2 °F 86% 29.36 in 10.0 mi South 5.8 mph - N/A   Overcast
5:35 AM 17.6 °F 7.3 °F 12.2 °F 79% 29.37 in 10.0 mi WSW 8.1 mph - N/A   Overcast
5:55 AM 19.4 °F 7.9 °F 14.0 °F 80% 29.36 in 10.0 mi West 10.4 mph - N/A   Overcast
6:15 AM 23.0 °F 8.0 °F 17.6 °F 80% 29.38 in 10.0 mi WNW 20.7 mph 29.9 mph N/A   Overcast
6:35 AM 26.6 °F 11.7 °F 21.2 °F 80% 29.39 in 3.0 mi WNW 24.2 mph 34.5 mph N/A   Overcast
6:55 AM 26.6 °F 10.3 °F 21.2 °F 80% 29.41 in 1.2 mi WNW 29.9 mph 42.6 mph N/A Rain Light Freezing Rain
7:15 AM 26.6 °F 9.6 °F 21.2 °F 80% 29.41 in 1.2 mi WNW 33.4 mph 43.7 mph N/A Rain Light Freezing Rain
7:35 AM 24.8 °F 7.3 °F 19.4 °F 80% 29.40 in 1.2 mi WNW 32.2 mph 46.0 mph N/A Rain Light Freezing Rain
7:55 AM 24.8 °F 8.7 °F 19.4 °F 80% 29.41 in 1.2 mi WNW 26.5 mph 38.0 mph N/A Rain Light Freezing Rain
8:15 AM 24.8 °F 7.9 °F 19.4 °F 80% 29.45 in 1.2 mi WNW 29.9 mph 39.1 mph N/A   Haze
8:35 AM 24.8 °F 9.3 °F 19.4 °F 80% 29.46 in 7.0 mi WNW 24.2 mph 32.2 mph N/A   Overcast
8:55 AM 24.8 °F 8.4 °F 19.4 °F 80% 29.46 in 3.0 mi WNW 27.6 mph 33.4 mph N/A   Haze
9:15 AM 23.0 °F 7.2 °F 17.6 °F 80% 29.47 in 3.0 mi WNW 23.0 mph 34.5 mph N/A Rain Light Freezing Rain
9:35 AM 23.0 °F 7.2 °F 17.6 °F 80% 29.45 in 4.0 mi WNW 23.0 mph 32.2 mph N/A Rain Light Freezing Rain
9:55 AM 23.0 °F 9.2 °F 17.6 °F 80% 29.45 in 10.0 mi WNW 17.3 mph 24.2 mph N/A   Scattered Clouds
10:15 AM 24.8 °F 10.7 °F 17.6 °F 74% 29.45 in 10.0 mi WNW 19.6 mph - N/A   Clear
10:35 AM 24.8 °F 9.6 °F 17.6 °F 74% 29.47 in 3.0 mi WNW 23.0 mph 31.1 mph N/A   Haze
10:55 AM 23.0 °F 7.2 °F 17.6 °F 80% 29.47 in 2.0 mi WNW 23.0 mph 38.0 mph N/A   Haze
11:15 AM 23.0 °F 8.0 °F 17.6 °F 80% 29.47 in 9.0 mi WNW 20.7 mph 26.5 mph N/A   Overcast
11:35 AM 24.8 °F 10.3 °F 17.6 °F 74% 29.47 in 10.0 mi WNW 20.7 mph - N/A   Overcast
11:55 AM 24.8 °F 10.0 °F 17.6 °F 74% 29.48 in 6.0 mi WNW 21.9 mph 32.2 mph N/A   Haze
12:15 PM 24.8 °F 8.1 °F 17.6 °F 74% 29.48 in 4.0 mi WNW 28.8 mph 34.5 mph N/A   Haze
12:35 PM 23.0 °F 6.3 °F 17.6 °F 80% 29.48 in 8.0 mi WNW 26.5 mph - N/A   Overcast
12:55 PM 23.0 °F 6.9 °F 15.8 °F 74% 29.48 in 9.0 mi WNW 24.2 mph 29.9 mph N/A   Overcast
1:15 PM 23.0 °F 8.3 °F 14.0 °F 68% 29.49 in 7.0 mi NW 19.6 mph 28.8 mph N/A   Overcast
1:35 PM 23.0 °F 9.2 °F 14.0 °F 68% 29.49 in 9.0 mi WNW 17.3 mph 24.2 mph N/A   Overcast
1:55 PM 23.0 °F 11.7 °F 15.8 °F 74% 29.48 in 9.0 mi West 11.5 mph - N/A Snow Light Snow
2:15 PM 23.0 °F 11.7 °F 15.8 °F 74% 29.48 in 7.0 mi West 11.5 mph - N/A Snow Light Snow
2:35 PM 23.0 °F 8.7 °F 17.6 °F 80% 29.49 in 2.0 mi West 18.4 mph 27.6 mph N/A Snow Light Snow
2:55 PM 23.0 °F 6.3 °F 17.6 °F 80% 29.50 in 0.5 mi WNW 26.5 mph - N/A Snow Light Snow
3:15 PM 21.2 °F 3.3 °F 17.6 °F 86% 29.52 in 0.2 mi NW 28.8 mph 35.7 mph N/A Snow Light Snow
3:35 PM 19.4 °F -0.8 °F 14.0 °F 80% 29.56 in 0.2 mi NNW 35.7 mph 44.9 mph N/A Snow Light Snow
3:55 PM 15.8 °F -5.8 °F 8.6 °F 73% 29.58 in 0.2 mi NW 35.7 mph 47.2 mph N/A Snow Light Snow
4:15 PM 14.0 °F -7.1 °F 8.6 °F 79% 29.60 in 0.2 mi NW 31.1 mph 39.1 mph N/A Rain Light Freezing Rain
4:35 PM 14.0 °F -8.8 °F 6.8 °F 73% 29.64 in 0.2 mi NW 38.0 mph 50.6 mph N/A Snow Light Snow
4:55 PM 10.4 °F -15.1 °F 3.2 °F 73% 29.66 in 0.2 mi NW 43.7 mph 52.9 mph N/A Snow Light Snow
5:15 PM 8.6 °F -15.1 °F 1.4 °F 73% 29.69 in 0.2 mi NW 33.4 mph 43.7 mph N/A Snow Light Snow
5:35 PM 6.8 °F -19.1 °F -0.4 °F 72% 29.72 in 0.2 mi NW 39.1 mph 51.8 mph N/A Snow Light Snow
5:55 PM 6.8 °F -19.6 °F -0.4 °F 72% 29.73 in 0.8 mi NW 41.4 mph 54.1 mph N/A Snow Light Snow
6:15 PM 5.0 °F -21.0 °F -2.2 °F 72% 29.75 in 0.2 mi NW 36.8 mph 52.9 mph N/A Snow Light Snow
6:35 PM 3.2 °F -23.8 °F -2.2 °F 78% 29.77 in 0.2 mi NW 38.0 mph 62.1 mph N/A Snow Light Snow
6:55 PM 3.2 °F -24.4 °F -4.0 °F 72% 29.79 in 0.5 mi WNW 40.3 mph 50.6 mph N/A Snow Light Snow
7:15 PM 3.2 °F -24.4 °F -4.0 °F 72% 29.82 in 0.2 mi NW 40.3 mph 56.4 mph N/A Snow Light Snow
7:35 PM 1.4 °F -26.9 °F -4.0 °F 78% 29.85 in 0.2 mi WNW 40.3 mph 50.6 mph N/A Snow Light Snow
7:55 PM -0.4 °F -28.8 °F -5.8 °F 78% 29.86 in 0.2 mi NW 38.0 mph 50.6 mph N/A Rain Light Freezing Rain
8:15 PM -0.4 °F -26.7 °F -7.6 °F 72% 29.88 in 1.0 mi NW 31.1 mph 42.6 mph N/A Rain Light Freezing Rain
8:35 PM -0.4 °F -28.1 °F -5.8 °F 78% 29.90 in 0.2 mi NW 35.7 mph 43.7 mph N/A Snow Light Snow
8:55 PM -0.4 °F -26.4 °F -5.8 °F 78% 29.92 in 0.5 mi NW 29.9 mph 41.4 mph N/A Snow Light Snow
9:15 PM -0.4 °F -27.1 °F -7.6 °F 72% 29.94 in 0.5 mi NW 32.2 mph 43.7 mph N/A Rain Light Freezing Rain
9:35 PM -2.2 °F -30.9 °F -7.6 °F 78% 29.95 in 0.2 mi NW 36.8 mph 47.2 mph N/A Rain Light Freezing Rain
9:55 PM -0.4 °F -27.1 °F -7.6 °F 72% 29.97 in 0.8 mi NW 32.2 mph 43.7 mph N/A Snow Light Snow
10:15 PM -2.2 °F -29.6 °F -9.4 °F 71% 29.99 in 0.5 mi NW 32.2 mph 40.3 mph N/A Snow Light Snow
10:35 PM -2.2 °F -27.6 °F -9.4 °F 71% 30.01 in 0.8 mi WNW 26.5 mph 40.3 mph N/A Snow Light Snow
10:55 PM -2.2 °F -29.2 °F -9.4 °F 71% 30.03 in 0.5 mi WNW 31.1 mph - N/A Snow Light Snow
11:15 PM -2.2 °F -25.2 °F -9.4 °F 71% 30.05 in 1.5 mi WNW 20.7 mph 32.2 mph N/A Snow Light Snow
11:35 PM -4.0 °F -30.0 °F -11.2 °F 71% 30.06 in 1.8 mi NW 26.5 mph 32.2 mph N/A   Haze
11:55 PM -4.0 °F -27.0 °F -11.2 °F 71% 30.07 in 2.0 mi WNW 19.6 mph 31.1 mph N/A   Haze